User: anonymous
Location: Unspecified
(0.0000°N, 0.0000°E)
Time: 16:04:46
(UTC+02:00)
Language:

Landsat 4 - Orbit

View from above orbital plane
View from above orbital plane
View from above satellite
View from above satellite

Ground track
Ground track

The orbit data is extracted from the following two-line orbital elements,

1 13367U 82072A   14237.41077953  .00002033  00000-0  12748-3 0  7151
2 13367 098.2050 305.4319 0016300 089.1028 043.4387 15.10536113729664
Epoch (UTC): 25 August 2014 09:51:31
Eccentricity: 0.0016300
inclination: 98.2050°
perigee height: 523 km
apogee height: 546 km
right ascension of ascending node: 305.4319°
argument of perigee: 89.1028°
revolutions per day: 15.10536113
mean anomaly at epoch: 43.4387°
orbit number at epoch: 72966

The dashed part of the orbit path shows where the satellite is in the earth's shadow,  

DLR